Temperature
-0 1 1 1 1 1 1 2 2 3 4 4 4 4 4 4 5 6 6 7 8 9 9 11 12 12 13 13 14 14 14 14 14 14 14 14 14 13 13 13 12 12 12 12
-0 1 1 2 2 2 2 2 2 3 3 4 4 4 3 4 4 4 5 6 7 8 9 9 10 11 12 13 13 13 13 14 14 14 14 13 13 13 13 12 12 12 12 11
-1 0 1 1 1 2 2 2 2 2 3 3 3 3 3 3 3 3 4 4 6 7 8 9 9 10 11 12 12 13 13 13 13 13 13 13 13 12 12 12 12 12 12 11
-1 -1 -1 1 1 2 2 1 1 2 2 2 3 3 3 3 3 3 3 4 5 6 7 8 9 10 11 11 12 12 12 13 13 13 13 12 12 12 12 12 12 12 11 11
-2 -2 -1 1 1 1 1 1 1 1 2 2 2 3 3 3 3 3 3 4 5 6 7 8 9 9 10 10 11 11 11 12 12 12 12 12 12 12 12 12 11 11 11 11
-2 -2 -1 0 1 2 1 0 1 1 1 1 1 1 2 2 2 2 3 4 5 6 7 7 8 9 9 9 10 10 11 11 11 11 11 11 12 12 11 11 11 11 11 11
-3 -2 -1 0 1 1 0 -0 0 1 1 1 1 1 2 2 2 3 3 4 4 5 6 7 7 8 8 9 9 10 10 10 10 10 11 11 11 11 11 11 10 10 10 10
-3 -3 -1 0 0 -0 -0 1 1 1 1 1 1 1 1 2 2 2 3 4 4 5 5 6 7 7 8 8 8 9 9 10 10 10 10 10 10 10 10 10 10 10 10 9
-3 -2 -1 0 0 1 1 0 0 0 1 1 1 1 1 1 1 2 3 3 4 4 5 6 6 6 7 7 8 8 8 9 9 9 9 9 9 10 9 9 9 9 9 9
-3 -2 -1 0 0 1 1 0 0 0 0 0 0 1 1 1 1 1 2 2 3 4 4 5 5 6 6 6 7 7 8 8 8 8 9 9 9 9 9 9 9 9 9 8
-3 -2 -2 -0 0 0 0 0 0 -0 -0 0 0 0 0 0 1 1 1 2 2 3 3 4 5 5 6 6 6 7 7 7 7 8 8 8 8 8 9 9 9 9 9 9
-3 -2 -2 -1 -0 -0 -0 -1 -1 -1 -0 -0 -0 -0 0 0 0 1 1 1 2 2 3 4 4 5 5 5 6 6 6 7 7 7 7 8 8 7 7 8 8 8 8 8
-1 -1 -1 -1 -1 -1 -1 -1 -1 -1 -1 -1 -1 -1 -1 -0 -0 0 0 1 1 2 2 3 4 4 5 5 5 6 6 6 7 7 7 7 7 7 7 7 7 7 7 7
-2 -2 -2 -2 -2 -2 -2 -2 -2 -2 -2 -2 -1 -1 -1 -1 -0 -0 0 0 1 1 2 2 3 4 5 5 5 5 6 6 6 7 7 7 6 6 7 6 6 6 6 6
-2 -3 -3 -3 -3 -3 -3 -3 -3 -3 -2 -2 -2 -2 -2 -2 -1 -1 -0 -0 0 1 1 2 3 4 4 4 4 5 5 5 6 6 6 6 6 6 6 6 6 6 6 6
-3 -3 -3 -3 -4 -4 -4 -4 -4 -4 -3 -3 -3 -3 -3 -2 -2 -2 -1 -1 -0 0 1 1 2 3 3 4 4 4 4 5 5 5 5 5 5 5 5 5 5 5 5 5
-4 -4 -4 -4 -4 -4 -5 -5 -5 -4 -4 -4 -4 -4 -3 -3 -3 -2 -2 -1 -1 -1 0 1 2 2 3 3 3 3 4 4 4 4 4 4 4 5 5 5 5 5 5 5
-5 -5 -5 -5 -5 -5 -5 -5 -5 -5 -5 -5 -4 -4 -4 -4 -3 -3 -2 -2 -1 -1 -1 0 1 1 2 2 2 3 3 3 3 3 3 4 4 4 4 4 4 4 4 4
-6 -6 -6 -6 -6 -6 -6 -6 -6 -6 -6 -5 -5 -5 -5 -4 -4 -3 -3 -3 -2 -2 -1 -0 0 1 1 2 2 2 2 2 2 3 3 3 3 3 3 4 4 4 4 4
-6 -7 -7 -6 -6 -7 -7 -6 -6 -6 -6 -6 -6 -5 -5 -4 -4 -4 -3 -3 -3 -2 -1 -1 -0 0 1 1 1 2 2 2 2 2 2 2 2 3 3 3 3 3 3 3
-7 -7 -7 -7 -7 -7 -7 -7 -7 -7 -6 -6 -6 -6 -5 -5 -4 -4 -4 -3 -3 -2 -2 -1 -1 -1 -0 0 0 1 1 1 1 1 2 2 2 2 3 3 3 3 3 3
-8 -8 -8 -8 -8 -7 -7 -7 -7 -7 -7 -7 -6 -6 -5 -5 -5 -4 -4 -4 -3 -3 -2 -2 -2 -1 -1 -1 -0 0 0 0 1 1 1 1 1 2 2 2 2 2 2 2
-8 -8 -8 -8 -8 -8 -8 -8 -8 -8 -7 -7 -6 -6 -6 -5 -5 -5 -4 -4 -4 -3 -3 -2 -2 -2 -1 -1 -1 -1 -0 -0 0 0 1 1 1 1 2 2 2 2 2 2
-9 -9 -9 -9 -9 -9 -8 -8 -8 -8 -7 -7 -7 -6 -6 -6 -5 -5 -5 -4 -4 -4 -3 -3 -2 -2 -2 -1 -1 -1 -1 -1 -0 0 0 1 1 1 1 1 1 1 1 1
-9 -9 -9 -9 -9 -9 -9 -9 -8 -8 -7 -7 -7 -6 -6 -6 -6 -5 -5 -5 -4 -4 -4 -3 -3 -2 -2 -2 -2 -1 -1 -1 -1 -0 -0 0 0 1 1 1 1 1 1 1
-10 -10 -10 -10 -9 -9 -9 -9 -9 -8 -8 -8 -7 -7 -7 -6 -6 -6 -5 -5 -5 -4 -4 -3 -3 -3 -2 -2 -2 -1 -1 -1 -1 -1 -1 -0 -0 -0 0 0 0 0 0 -0
-10 -10 -10 -10 -9 -9 -10 -9 -9 -9 -8 -8 -8 -7 -7 -7 -6 -6 -6 -5 -5 -5 -4 -4 -3 -3 -3 -2 -2 -2 -2 -1 -1 -1 -1 -1 -1 -1 -0 -0 -0 -0 -1 -1
Wind_Speed
10 11 9 9 10 8 7 7 7 7 7 8 9 9 10 10 10 10 10 8 6 4 4 3 1 1 3 5 5 7 10 12 14 14 14 14 14 15 14 14 15 15 14 14
7 8 8 10 10 9 9 7 8 9 9 7 6 5 7 9 10 10 10 9 8 6 5 3 2 2 2 3 4 6 9 10 9 10 11 13 13 13 13 13 13 14 15 14
6 8 6 5 6 6 5 5 5 7 8 7 7 7 6 7 9 9 10 10 9 8 5 4 3 2 3 3 3 5 6 7 8 9 10 12 12 12 13 13 12 13 14 14
4 4 5 5 4 4 5 3 3 4 5 6 7 7 4 5 7 9 10 11 10 8 7 5 4 2 1 1 3 4 5 5 6 8 9 9 11 12 12 11 12 12 12 13
2 4 7 5 4 4 4 3 4 4 6 8 8 5 4 6 7 9 9 9 8 8 6 5 3 2 1 1 2 3 3 4 6 7 8 9 10 11 10 10 10 10 11 12
3 4 5 4 7 6 1 3 5 4 5 7 6 3 6 9 10 10 9 8 8 8 6 4 4 1 1 1 1 1 2 3 4 6 8 9 10 9 8 9 9 9 8 10
6 6 6 5 7 4 0 5 6 4 4 4 3 5 8 9 10 10 8 8 8 7 5 4 3 1 0 0 1 1 0 1 2 4 7 8 8 8 8 8 8 8 8 7
4 5 7 3 2 0 5 5 5 5 4 4 6 7 7 8 10 10 9 8 8 7 7 5 3 1 1 1 1 1 1 2 2 3 5 6 8 8 8 9 9 8 8 6
6 7 5 3 4 5 4 4 5 5 6 6 6 7 8 8 9 9 8 8 7 7 7 6 4 2 1 2 1 1 2 2 3 3 4 6 8 9 8 9 8 8 8 7
5 7 7 6 5 5 4 5 6 6 6 6 6 7 8 8 9 9 8 7 7 6 7 7 6 4 2 2 1 1 2 2 3 4 5 5 6 6 7 8 8 8 8 8
7 8 7 6 6 6 7 6 6 7 7 7 7 8 7 8 9 8 8 7 6 5 6 7 6 5 3 1 0 1 1 2 3 4 5 5 4 4 5 5 7 9 9 9
9 8 7 7 7 6 7 7 7 7 8 8 7 9 8 8 8 8 8 7 7 6 6 6 5 5 3 2 1 2 2 2 3 3 4 5 5 5 7 5 7 7 8 9
10 9 9 9 8 7 7 8 8 8 8 9 8 7 8 8 7 8 8 8 7 7 7 6 5 5 4 2 1 2 3 3 3 4 4 5 5 6 5 6 8 9 10 11
6 6 7 7 8 8 8 8 8 8 7 7 7 7 7 7 7 8 9 8 8 7 7 6 6 6 4 2 2 2 2 3 4 4 5 5 5 5 6 7 6 4 6 11
6 7 9 9 9 8 8 7 8 8 8 8 7 7 7 8 8 9 9 8 8 7 7 6 6 7 4 2 3 3 3 3 3 4 4 5 5 5 6 7 7 7 6 7
7 7 7 7 8 8 8 8 8 9 9 8 8 8 8 8 9 9 9 8 7 9 8 7 7 7 4 3 3 3 3 5 5 5 5 6 6 7 7 7 7 8 8 8
6 7 7 8 8 8 8 8 9 9 9 9 9 10 9 8 8 8 8 8 8 9 8 8 8 6 4 4 4 4 4 5 6 5 5 6 6 7 7 7 7 7 6 7
5 6 7 8 8 9 9 9 9 9 9 9 10 9 9 9 9 9 9 8 8 8 8 7 6 5 4 4 4 4 4 5 5 5 6 6 6 6 7 7 8 8 7 7
6 7 7 8 8 8 9 9 9 9 9 9 9 9 9 9 9 9 8 8 8 9 8 6 7 5 5 5 5 5 5 6 5 5 5 8 7 6 7 7 7 8 8 7
7 7 8 8 8 8 9 9 9 9 8 8 9 10 10 9 8 8 8 8 7 7 6 5 5 4 4 5 6 5 6 7 7 6 6 7 7 7 7 7 8 8 8 7
8 8 9 9 9 9 8 8 8 9 9 8 9 10 10 9 7 7 6 7 7 6 6 6 4 3 4 5 6 5 6 7 7 7 7 7 8 8 8 8 8 8 8 8
7 8 9 9 9 9 8 7 8 9 9 9 9 9 8 8 7 6 7 6 6 6 4 2 2 4 6 6 5 6 7 7 7 7 7 7 8 8 8 8 8 8 8 8
8 8 9 9 9 9 9 8 8 8 9 9 8 8 7 7 5 5 6 4 3 4 3 2 4 6 8 6 5 6 7 7 7 7 7 7 8 8 8 9 8 8 8 8
8 8 8 8 7 7 8 9 8 7 7 7 7 7 6 5 5 4 4 5 4 3 2 3 5 7 7 5 6 6 7 7 7 7 7 7 7 7 7 8 8 8 8 9
7 7 7 8 7 7 7 8 7 7 6 5 6 6 4 4 4 3 3 2 2 1 1 3 5 5 4 5 6 6 6 7 7 7 7 7 7 7 8 8 8 8 8 8
7 7 7 7 7 6 6 6 5 5 5 5 5 4 3 2 2 2 1 0 1 1 1 2 3 4 4 5 6 6 6 7 7 7 7 7 8 8 8 8 9 8 8 8
6 6 6 6 6 5 5 5 5 5 4 4 4 3 2 1 1 0 1 1 1 2 2 3 3 4 4 5 6 6 6 6 6 7 7 7 7 7 8 9 8 8 8 8
Wind_Direction
259 268 268 274 282 277 254 246 246 268 275 297 320 331 336 341 346 356 1 2 2 1 353 347 319 207 191 191 187 185 187 192 197 196 194 193 194 194 192 192 194 193 193 194
277 270 272 276 281 272 259 254 254 268 274 299 317 330 340 346 351 355 354 351 351 350 354 343 316 275 219 199 190 181 186 192 190 186 188 189 191 189 189 189 189 188 191 192
273 294 297 267 276 269 248 249 243 255 273 307 320 328 330 336 345 349 346 344 340 336 325 316 296 270 226 211 189 180 182 182 182 183 186 189 185 184 186 187 186 189 191 191
273 308 258 252 263 271 258 268 274 277 307 305 296 292 301 337 339 337 339 336 333 325 317 313 311 309 272 175 165 169 172 175 178 180 183 181 181 184 185 184 186 190 190 191
248 270 274 290 312 289 247 264 307 299 312 320 318 309 307 341 341 325 320 322 321 313 304 311 319 321 39 91 133 145 166 183 181 177 178 178 182 183 180 177 182 186 185 186
233 254 262 280 314 317 193 268 311 310 311 322 346 327 301 326 328 322 319 324 328 325 322 329 328 341 98 88 104 174 200 196 183 175 176 180 181 176 170 171 176 176 178 184
228 244 266 286 317 354 142 275 301 302 303 324 297 267 289 311 319 318 315 321 329 330 323 315 324 349 110 117 284 302 265 157 156 168 172 172 169 166 158 160 162 167 169 174
210 231 254 293 355 247 251 272 285 287 293 294 288 293 301 310 318 319 322 327 331 331 326 323 322 323 300 298 331 3 71 124 139 150 156 157 155 155 154 155 158 161 159 157
205 229 255 251 234 253 252 267 278 282 288 289 289 297 308 309 314 316 319 320 323 323 320 324 326 323 307 317 359 58 75 109 127 128 144 150 152 153 153 156 159 161 161 161
248 260 264 270 263 264 262 258 272 277 282 286 286 296 306 310 310 311 312 312 315 318 316 317 325 328 310 308 326 106 111 116 133 132 133 135 141 148 155 162 162 160 162 161
252 267 280 268 257 263 272 277 282 283 278 279 285 290 293 301 302 302 304 304 302 300 302 306 316 318 312 298 333 132 133 135 137 134 134 130 126 135 152 167 170 166 169 166
245 246 243 262 270 278 283 286 287 287 287 283 279 281 285 290 292 294 297 301 299 297 295 296 299 300 298 272 209 172 169 166 152 142 136 134 124 94 68 99 123 137 152 155
246 258 256 264 273 276 278 285 289 284 280 284 284 279 282 284 289 293 294 297 294 290 288 287 285 282 280 264 227 201 204 192 165 150 145 143 141 138 121 82 91 114 132 139
255 264 271 272 274 281 283 285 287 285 281 281 283 286 285 285 290 293 292 291 291 288 287 286 281 274 267 245 221 211 202 185 174 161 154 152 150 146 144 142 133 111 119 133
265 256 258 270 278 285 289 292 293 293 293 292 290 289 288 289 289 290 291 291 292 289 286 282 278 276 265 226 208 207 191 179 164 155 151 148 146 141 138 135 136 132 123 124
284 282 276 278 284 290 294 292 289 290 292 293 293 290 286 282 282 287 289 287 286 285 284 278 272 270 256 209 197 198 186 176 166 158 153 150 150 147 144 141 141 143 145 144
284 289 289 291 292 294 292 287 284 285 287 289 290 292 291 287 287 288 288 286 280 278 276 269 267 262 241 208 194 186 172 163 157 157 160 158 156 154 151 148 148 149 150 154
275 277 283 285 289 293 296 295 292 291 289 289 292 293 291 286 284 286 285 286 286 282 277 269 262 250 228 204 187 176 166 166 167 164 160 157 154 154 153 151 152 150 145 142
302 298 297 295 291 289 290 292 294 294 296 298 296 293 288 284 281 280 282 281 277 276 278 270 256 240 218 195 179 169 162 163 165 161 156 156 154 155 156 155 153 152 149 146
307 305 303 300 294 288 288 289 292 293 293 294 294 293 291 286 282 281 279 273 267 267 270 265 253 234 208 182 174 168 165 166 165 162 160 161 159 159 158 154 152 151 150 149
305 306 304 302 298 291 285 285 287 290 293 292 289 289 289 288 281 276 274 275 277 273 267 262 245 215 190 175 169 166 165 165 165 165 165 164 162 160 157 154 153 152 151 148
303 303 302 302 301 298 293 288 284 287 290 289 287 287 288 289 285 275 267 266 275 275 266 245 215 193 178 170 165 163 164 163 164 164 164 165 164 162 158 155 154 152 151 149
298 298 300 299 298 297 296 292 287 287 286 285 286 285 284 283 279 272 279 280 271 262 254 228 194 179 170 166 162 162 161 162 163 164 164 164 163 159 156 154 154 153 151 150
299 299 300 300 299 298 299 300 297 292 287 284 281 279 278 282 284 272 268 274 269 258 238 199 185 175 167 159 156 158 159 160 159 158 158 156 154 152 152 152 151 150 149 147
298 298 299 301 300 294 292 297 300 296 294 294 292 286 279 270 268 279 279 264 242 236 202 177 167 159 153 148 152 154 156 158 156 154 155 154 153 152 152 151 150 148 148 148
297 297 294 289 287 288 292 295 295 297 299 301 304 302 296 287 274 270 268 257 165 161 146 137 134 130 136 141 146 148 148 151 150 150 152 152 151 151 149 147 145 147 146 145
297 297 298 300 298 295 296 296 294 297 297 297 304 309 310 315 323 23 89 100 102 100 100 102 106 113 123 131 134 137 140 141 142 143 145 147 149 148 146 143 143 142 142 144
Height
1413 1407 1406 1403 1399 1396 1396 1393 1390 1380 1376 1372 1371 1369 1366 1363 1359 1355 1351 1349 1348 1348 1348 1349 1351 1354 1357 1361 1366 1371 1376 1381 1386 1392 1398 1403 1409 1414 1419 1425 1430 1435 1439 1444
1410 1401 1400 1397 1393 1391 1389 1388 1385 1380 1376 1373 1372 1370 1367 1364 1361 1357 1354 1351 1350 1348 1348 1348 1350 1352 1354 1358 1362 1366 1371 1375 1381 1387 1392 1397 1402 1408 1413 1419 1424 1429 1434 1438
1411 1402 1398 1396 1391 1388 1386 1384 1383 1381 1378 1374 1372 1370 1368 1365 1362 1359 1356 1353 1351 1349 1348 1348 1349 1351 1353 1355 1359 1362 1366 1370 1376 1381 1386 1391 1397 1402 1407 1412 1418 1423 1428 1432
1411 1407 1406 1395 1387 1386 1384 1383 1382 1380 1378 1374 1372 1369 1367 1365 1363 1360 1357 1354 1351 1350 1349 1348 1348 1349 1351 1353 1356 1358 1362 1366 1371 1376 1381 1386 1392 1396 1402 1407 1412 1417 1422 1427
1412 1409 1399 1391 1385 1384 1383 1382 1381 1379 1377 1373 1370 1367 1365 1364 1363 1361 1357 1354 1351 1350 1348 1348 1348 1348 1349 1351 1353 1355 1359 1362 1366 1371 1376 1381 1386 1391 1396 1402 1407 1412 1417 1421
1412 1407 1398 1391 1383 1380 1381 1383 1380 1378 1376 1374 1371 1371 1367 1364 1362 1358 1356 1353 1350 1348 1348 1347 1347 1347 1348 1348 1350 1352 1356 1359 1363 1367 1371 1376 1381 1386 1392 1397 1402 1407 1412 1416
1411 1407 1396 1388 1383 1381 1387 1386 1379 1377 1375 1374 1373 1372 1368 1364 1360 1357 1354 1352 1350 1348 1347 1346 1346 1346 1346 1347 1348 1351 1354 1357 1360 1364 1368 1372 1377 1382 1387 1392 1397 1402 1407 1411
1407 1406 1398 1385 1383 1385 1384 1379 1377 1375 1373 1373 1371 1368 1366 1362 1359 1355 1352 1350 1348 1346 1345 1345 1345 1345 1345 1346 1348 1350 1351 1354 1357 1361 1365 1369 1373 1378 1383 1388 1393 1398 1402 1406
1399 1395 1386 1383 1382 1380 1378 1377 1375 1373 1371 1370 1368 1366 1363 1360 1357 1354 1351 1349 1347 1346 1344 1343 1344 1344 1343 1344 1346 1348 1350 1352 1355 1358 1362 1366 1370 1374 1379 1384 1389 1393 1397 1401
1391 1385 1382 1380 1378 1377 1376 1374 1372 1371 1369 1367 1365 1362 1360 1357 1355 1352 1350 1348 1346 1344 1342 1341 1342 1342 1343 1344 1345 1347 1348 1350 1353 1356 1360 1364 1368 1372 1376 1380 1384 1389 1393 1397
1386 1381 1378 1375 1375 1374 1372 1371 1369 1367 1365 1363 1361 1359 1357 1355 1353 1350 1348 1346 1345 1343 1341 1340 1340 1341 1342 1343 1344 1345 1347 1349 1351 1354 1357 1361 1365 1370 1374 1378 1382 1386 1390 1394
1381 1376 1376 1373 1371 1370 1368 1366 1365 1363 1361 1360 1358 1356 1353 1351 1350 1348 1345 1343 1342 1340 1339 1338 1338 1339 1340 1342 1343 1343 1345 1347 1350 1352 1356 1359 1363 1368 1372 1377 1381 1385 1389 1393
1372 1371 1370 1368 1367 1365 1364 1362 1360 1359 1357 1355 1354 1352 1350 1348 1346 1344 1342 1340 1338 1337 1336 1335 1335 1336 1337 1339 1340 1342 1343 1345 1348 1351 1354 1357 1361 1365 1369 1374 1379 1383 1387 1391
1367 1366 1364 1363 1362 1360 1359 1357 1355 1353 1352 1351 1349 1347 1345 1343 1341 1340 1338 1336 1335 1334 1333 1332 1332 1333 1335 1337 1338 1340 1342 1344 1346 1349 1352 1356 1359 1363 1367 1370 1375 1379 1385 1389
1362 1362 1360 1358 1357 1355 1353 1352 1350 1348 1346 1345 1344 1342 1340 1338 1336 1335 1334 1333 1332 1330 1329 1330 1329 1330 1332 1334 1335 1337 1339 1341 1344 1347 1351 1354 1358 1362 1366 1369 1373 1377 1381 1386
1357 1356 1355 1353 1351 1349 1348 1346 1344 1342 1341 1339 1338 1336 1335 1334 1332 1330 1329 1329 1328 1326 1326 1326 1326 1327 1329 1331 1332 1334 1337 1339 1342 1345 1348 1352 1355 1359 1363 1367 1371 1375 1379 1383
1354 1351 1349 1348 1346 1344 1343 1341 1339 1337 1336 1334 1332 1331 1330 1328 1327 1325 1324 1324 1323 1322 1322 1322 1322 1324 1325 1327 1329 1331 1333 1336 1339 1342 1346 1349 1353 1357 1361 1365 1369 1373 1377 1382
1350 1348 1346 1344 1342 1339 1337 1335 1334 1332 1330 1329 1327 1326 1324 1323 1321 1320 1319 1319 1318 1317 1317 1318 1318 1319 1321 1323 1325 1327 1329 1332 1336 1339 1343 1346 1350 1355 1359 1363 1367 1371 1375 1380
1345 1343 1341 1339 1336 1334 1332 1330 1328 1327 1325 1324 1322 1321 1319 1317 1316 1315 1314 1313 1313 1312 1312 1313 1314 1315 1316 1319 1321 1324 1326 1330 1333 1337 1340 1344 1348 1353 1357 1361 1365 1369 1373 1377
1341 1339 1336 1333 1331 1329 1327 1324 1323 1321 1320 1319 1317 1315 1313 1312 1311 1310 1309 1308 1307 1307 1307 1308 1308 1309 1311 1314 1317 1320 1323 1327 1330 1333 1337 1341 1346 1350 1355 1359 1363 1367 1371 1375
1336 1334 1331 1328 1325 1323 1321 1320 1318 1316 1314 1313 1312 1310 1308 1307 1306 1305 1304 1302 1302 1303 1303 1303 1304 1305 1308 1310 1314 1317 1320 1323 1327 1330 1334 1339 1343 1347 1352 1356 1361 1365 1368 1372
1331 1329 1326 1323 1320 1318 1316 1315 1313 1311 1309 1307 1306 1305 1303 1302 1301 1300 1299 1299 1298 1298 1299 1299 1300 1302 1305 1308 1311 1314 1317 1320 1324 1328 1332 1336 1340 1344 1349 1353 1358 1362 1366 1370
1327 1324 1321 1319 1316 1313 1311 1309 1307 1305 1303 1302 1300 1299 1298 1297 1297 1296 1294 1294 1294 1294 1295 1296 1297 1300 1302 1305 1308 1311 1314 1317 1321 1325 1329 1334 1338 1342 1346 1351 1355 1360 1364 1368
1322 1320 1317 1314 1311 1309 1305 1303 1302 1300 1298 1296 1295 1294 1293 1292 1291 1291 1291 1290 1291 1291 1292 1293 1295 1297 1299 1302 1305 1308 1311 1315 1319 1323 1327 1331 1336 1340 1344 1348 1353 1357 1361 1365
1318 1315 1312 1310 1307 1304 1301 1299 1297 1295 1293 1291 1290 1289 1289 1289 1288 1287 1287 1287 1288 1288 1289 1291 1293 1295 1297 1299 1302 1305 1309 1313 1317 1321 1325 1329 1334 1338 1342 1347 1351 1355 1359 1363
1314 1311 1308 1305 1303 1300 1298 1295 1293 1291 1289 1287 1286 1285 1285 1285 1285 1285 1285 1285 1285 1286 1287 1289 1290 1292 1295 1297 1300 1304 1307 1311 1315 1320 1324 1328 1332 1336 1340 1345 1349 1353 1357 1361
1310 1307 1304 1301 1299 1296 1294 1292 1290 1288 1286 1285 1283 1283 1282 1282 1282 1282 1282 1283 1283 1284 1286 1287 1289 1291 1293 1296 1299 1303 1306 1310 1314 1318 1323 1327 1331 1335 1339 1343 1347 1351 1355 1359